Location: St. Louis
(38.6270°N, 90.1994°W)
Time: 20:21:04
(UTC-06:00)

Tiros 1 despin weight - Pass Details

Date: 06 December 2021
Orbit: 592 x 641 km, 48.2° (Epoch: 18 January)

Event Time Altitude Azimuth Distance (km) Brightness Sun altitude
Rises 19:47:40 0° 281° (W) 2,825 ? -36.0°
Reaches altitude 10° 19:52:08 10° 239° (WSW) 1,926 ? -36.9°
Enters shadow 19:52:33 10° 233° (SW) 1,911 ? -37.0°
